星链-36068(STARLINK-36068)

导读

STARLINK-36068是美国SpaceX星链星座的卫星,于2025年12月31日发射。作为星链互联网星座的组成部分,它旨在为全球提供低延迟、高速率的宽带互联网服务,尤其覆盖偏远和网络基础设施薄弱地区。星链通过大规模低轨卫星组网,依托空间传输技术,持续拓展全球卫星互联网覆盖范围,该卫星的发射延续了星链星座的组网推进节奏。

Basic Information
目录编号:
66845
目录名称:
STARLINK-36068
国际标识:
2025-280AA
轨道中心:
EARTH
卫星名称:
星链-36068
卫星全名:
星链-36068(STARLINK-36068)
卫星状态:
在轨 (已飞行193 天)
发射日期:
2025-12-02 UTC
国别 :
美国 (US)
星等 :
--
Orbit Information
数据来源 国际轨道数据 AOE轨道数据
星历时间 2026-06-13T04:26:28+0800
12小时前
查看轨道信息
2026-06-11T03:00:00+0800
2天前
查看轨道信息
半长轴 6950.171km 6950.194km
偏心率 0.0002812 0.0003156
轨道倾角 70.002° 70.000°
近地点辐角 268.652° 268.150°
升交点赤经 94.381° 99.575°
平近点角 91.431° 143.249°
近地点 570.079km 569.863km
远地点 573.989km 574.251km
周期 96.107分钟 96.107分钟
每日圈数 14.983374 14.983297
Detailed Information
固有亮度:
5
最大亮度:
2.5
卫星平台:
Starlink V1.0
覆盖范围:
全球
运营商:
太空探索技术公司
运营商所在国:
美国
制造商(研发单位):
太空探索技术公司
制造商所在国:
美国
使用方式:
暂无
Satellite Introduction
Starlink 计划是 SpaceX 推出的全球卫星互联网项目,通过发射低轨道卫星,为全球尤其是偏远地区提供高速、低延迟的互联网服务。自 2019 年起,Starlink 已部署数千颗卫星,旨在缩小全球数字鸿沟,推动互联网普及。该项目还为军事、航空等行业提供通信支持,带来广泛经济效益。
2D Orbit Map
3D Orbit Map
Orbit Altitude Analysis Chart
Orbit Inclination Analysis Chart
Orbit Comprehensive Analysis Chart
View Comprehensive Chart